SCP
0 0 0 0 0 0 0 1 1 1 1 0 0 0 0 0 0 0 0 0 0 0 0 0 0 0 0 0 0 0 0 0 0 0 0 0 0 0 0 0 0 0 0
0 0 0 0 0 0 0 1 1 1 1 1 0 0 0 0 0 0 0 0 0 0 0 0 0 0 0 0 0 0 0 0 0 0 0 0 0 0 0 0 0 0 0
0 0 0 0 0 0 0 1 1 1 1 1 1 0 0 0 0 0 0 0 0 0 0 0 0 0 0 0 0 0 0 0 0 0 0 0 0 0 0 0 0 0 0
0 0 0 0 0 0 0 1 1 1 1 1 1 1 1 0 0 0 0 0 0 0 0 0 0 0 0 0 0 0 0 0 0 0 0 0 0 0 0 0 0 0 0
0 0 0 0 0 0 0 1 1 1 1 1 1 1 1 1 0 0 0 1 0 0 0 0 0 0 0 0 0 0 0 0 0 0 0 0 0 0 0 0 0 0 0
0 0 0 1 1 1 0 1 1 1 1 1 1 1 1 1 1 0 0 0 0 0 0 0 0 0 0 0 0 0 0 0 0 0 0 0 0 0 0 0 0 0 0
1 1 1 1 1 1 0 0 1 1 1 1 1 1 1 1 1 0 0 0 0 0 0 0 0 0 0 0 0 0 0 0 0 0 0 0 0 0 0 0 0 0 0
1 1 1 1 1 1 1 1 1 1 1 1 1 1 1 1 1 0 0 0 0 0 0 0 0 0 0 0 0 0 0 0 0 0 0 0 0 0 0 0 0 0 0
1 1 1 1 1 1 1 1 1 1 1 1 1 1 1 1 0 0 0 0 0 0 0 0 0 0 0 0 0 0 0 0 0 0 0 0 0 0 0 0 0 0 0
0 1 1 1 1 1 1 1 1 1 1 1 1 1 1 0 0 0 0 0 0 0 0 0 0 0 0 0 0 0 0 0 0 0 0 0 0 0 0 0 0 0 0
0 0 1 1 1 1 1 1 1 1 1 1 0 0 0 0 0 0 0 0 0 0 0 0 0 0 0 0 0 0 0 0 0 0 0 0 0 0 0 0 0 0 0
0 1 1 1 1 1 1 1 1 1 1 1 0 0 0 0 0 0 0 0 0 0 0 0 0 0 0 0 0 0 0 0 0 0 0 0 0 0 0 0 0 0 0
1 1 1 1 1 1 1 1 1 1 1 1 1 0 0 0 0 0 0 0 0 0 0 0 0 0 0 0 0 0 0 0 0 0 0 0 0 0 0 0 0 0 0
1 1 1 1 1 1 1 1 1 1 1 1 1 1 1 0 1 1 0 0 0 0 0 0 0 0 0 0 0 0 0 0 0 0 0 0 0 0 0 0 0 0 0
1 1 1 1 1 1 1 1 1 1 1 1 1 1 1 1 1 1 1 0 0 0 0 0 0 0 0 0 0 0 0 0 0 0 0 0 0 0 0 0 0 0 0
1 1 1 1 1 1 1 1 1 1 1 1 1 1 1 1 1 1 1 0 0 0 0 0 0 0 0 0 0 0 0 0 0 0 0 0 0 0 0 0 0 0 0
1 1 1 1 1 1 1 1 1 1 1 1 1 1 1 1 1 1 0 0 0 0 0 0 0 0 0 0 0 0 0 0 0 0 0 0 0 0 0 0 0 0 0
1 1 1 1 1 1 1 1 1 1 1 1 1 1 1 1 1 1 0 0 0 0 0 0 0 0 0 0 0 0 0 0 0 0 0 0 0 0 0 0 0 0 0
1 1 1 1 1 1 1 1 1 1 1 1 1 1 1 1 1 0 0 0 0 0 0 1 1 1 1 0 0 0 0 0 0 0 0 0 0 0 0 0 0 0 0
1 1 1 1 1 1 1 1 1 1 1 1 1 1 1 1 0 0 0 0 1 1 1 1 1 1 1 0 0 0 0 0 0 0 0 0 0 0 0 0 0 0 0
1 1 1 1 1 1 1 1 1 1 1 1 1 1 1 0 0 0 0 1 1 1 1 1 1 1 1 0 0 0 0 0 0 0 0 0 0 0 0 0 0 0 0
1 1 1 1 1 1 1 1 1 1 1 1 1 1 1 0 0 0 1 1 1 1 1 1 1 1 1 0 0 0 0 0 0 0 0 0 0 0 0 0 0 0 0
1 1 1 1 1 1 1 1 1 1 1 1 1 1 1 0 0 1 1 1 1 1 1 1 1 1 1 0 0 0 0 0 0 0 0 0 0 0 0 0 0 0 0
1 1 1 1 1 1 1 1 1 1 1 1 1 1 1 0 1 1 1 1 1 1 1 1 1 1 0 0 0 0 0 0 0 0 0 0 0 0 0 0 0 0 0
1 1 1 1 1 1 1 1 1 1 1 1 1 1 0 1 1 1 0 0 0 0 0 0 0 0 0 0 0 0 0 0 0 0 0 0 0 0 0 0 0 0 0
1 1 1 1 1 1 1 1 1 1 1 1 1 0 0 1 1 0 0 0 0 0 0 0 0 0 0 0 0 0 0 0 0 0 0 0 0 0 0 0 0 0 0
Wind_Speed
10 10 10 10 10 10 10 9 9 8 6 5 4 4 4 3 3 3 3 3 3 3 3 2 2 2 1 1 2 1 1 1 1 1 1 2 2 2 2 2 2 3 3
10 10 11 11 11 11 11 10 10 9 8 6 4 3 3 3 2 2 3 4 4 4 4 3 3 2 2 2 2 2 2 1 1 2 2 1 3 3 3 3 3 2 2
10 11 11 11 11 11 11 10 9 9 8 7 5 4 4 4 3 3 3 4 5 5 4 3 3 3 3 2 3 3 3 2 2 2 2 2 0 0 3 2 2 2 2
10 10 11 11 11 11 10 10 10 9 9 9 7 7 5 4 3 3 3 4 4 4 4 4 4 4 3 2 4 2 3 3 3 2 2 3 3 2 1 2 2 3 3
9 10 11 11 11 10 9 9 9 9 9 9 8 8 6 4 3 4 3 4 4 5 5 4 4 4 4 3 3 2 4 3 3 3 2 2 2 4 3 2 1 2 2
8 8 9 9 10 9 9 9 10 9 9 9 9 8 7 5 4 4 4 4 4 4 5 5 4 4 4 4 4 4 5 4 4 4 3 3 3 3 2 3 3 2 2
7 8 9 10 10 10 10 9 9 9 9 9 9 8 7 6 6 5 5 4 4 4 5 4 4 4 4 5 4 4 4 4 4 5 4 3 3 3 3 3 3 3 2
7 8 9 9 10 10 10 10 9 9 9 9 8 7 7 6 5 5 5 4 4 4 3 4 5 5 5 5 4 4 4 4 5 5 4 3 3 3 3 3 3 3 3
6 7 8 8 9 9 10 10 9 8 8 8 7 7 7 6 5 4 5 4 3 3 4 4 5 5 5 5 4 4 4 4 5 4 4 4 3 3 3 3 4 4 4
7 7 7 7 7 8 8 8 8 7 7 7 7 5 6 5 4 4 4 4 4 3 3 4 4 4 4 4 4 4 4 4 4 3 3 4 3 3 3 3 4 4 4
6 7 7 7 7 7 7 7 8 8 7 7 6 5 5 5 4 4 4 4 4 4 4 4 4 4 4 4 4 4 3 4 3 3 3 4 4 3 3 3 3 3 3
6 7 7 7 7 7 7 7 7 7 6 6 5 5 4 4 4 4 4 3 3 4 4 4 4 4 3 3 4 4 3 3 3 3 3 3 3 3 3 3 3 2 2
6 7 6 6 6 6 6 6 5 5 5 5 5 4 4 4 3 3 3 3 3 3 3 3 3 3 3 3 3 2 2 1 1 1 1 2 2 2 2 2 2 2 1
6 6 6 6 6 6 5 5 5 4 4 4 4 4 3 3 3 3 2 3 3 3 2 2 2 2 2 3 2 2 2 1 0 0 1 1 1 2 1 1 1 1 0
7 6 6 6 5 5 5 5 4 4 4 4 3 3 3 2 2 2 2 2 2 2 2 2 2 2 2 2 1 2 2 2 2 1 2 2 5 7 5 3 2 1 0
6 6 6 6 5 5 4 4 4 3 4 4 3 2 2 2 2 2 2 2 1 1 2 2 2 1 0 3 2 1 2 3 2 2 2 3 4 5 6 6 6 5 2
6 6 6 5 4 4 4 4 4 4 4 3 3 2 3 2 2 2 2 2 2 2 2 2 2 2 2 4 3 2 2 2 2 2 2 1 3 3 3 4 4 5 5
6 6 5 5 5 4 4 4 4 4 4 3 3 2 2 3 2 2 2 2 1 2 2 2 2 2 2 4 3 3 3 2 2 2 2 2 2 2 1 2 4 4 5
6 5 5 6 5 4 4 4 4 4 3 3 3 2 2 3 2 2 2 2 2 2 2 2 2 2 3 3 2 2 3 3 3 3 3 2 3 3 2 2 3 4 4
6 6 6 7 6 4 4 4 4 4 3 3 3 2 2 2 2 2 1 2 2 2 2 3 3 3 3 3 2 1 2 3 3 3 4 5 4 4 2 2 2 3 3
7 7 7 6 6 4 4 4 4 3 3 3 3 3 3 2 2 2 1 2 2 2 2 3 4 4 3 4 4 2 1 2 3 3 3 4 6 6 4 2 2 2 1
6 7 6 6 5 4 4 4 3 3 3 3 3 3 3 2 2 2 2 2 2 3 3 3 4 4 4 4 5 4 3 2 2 2 3 5 6 6 4 3 3 1 1
5 5 6 6 5 4 4 4 4 3 3 4 4 3 3 3 2 2 2 2 2 2 2 3 3 3 4 5 6 5 4 3 2 4 6 5 6 6 5 4 1 0 1
4 4 5 5 4 4 4 5 4 3 4 4 4 3 3 4 3 2 2 2 1 1 1 2 2 3 3 3 4 4 5 5 5 5 6 7 5 4 4 4 2 2 3
4 3 4 4 4 4 4 4 4 3 4 4 4 3 3 4 4 4 5 3 5 4 1 1 2 2 3 3 3 1 3 3 3 4 4 4 4 3 3 3 3 3 2
4 4 3 4 4 4 4 4 4 4 4 4 3 3 3 3 3 5 5 11 8 9 9 7 4 5 5 5 5 5 5 4 2 2 3 3 2 2 3 3 3 3 2
Wind_Direction
192 188 191 191 190 190 191 195 199 192 196 200 206 203 201 206 207 208 201 213 222 211 229 253 196 247 243 265 236 239 210 225 270 255 201 182 185 193 191 212 209 194 205
190 189 192 193 196 195 196 197 199 197 202 200 207 217 218 217 212 224 206 222 222 223 216 226 229 223 241 242 251 240 267 264 252 280 260 220 177 190 194 195 211 213 204
195 190 193 196 199 198 199 200 199 197 205 204 203 201 202 221 209 212 209 220 225 227 238 229 238 242 251 240 251 245 244 251 242 269 293 290 320 165 162 187 205 217 229
202 195 192 194 199 199 196 197 194 197 201 203 210 211 215 218 216 223 207 212 221 229 228 231 230 239 249 242 241 214 247 249 252 221 245 292 325 293 235 197 193 208 225
204 199 195 192 195 194 195 195 195 201 203 207 209 216 224 223 218 223 210 227 218 226 232 225 227 231 244 250 264 252 256 252 255 262 250 242 235 246 268 272 263 250 236
197 193 190 186 188 188 192 196 195 201 203 205 208 214 222 225 227 227 225 223 218 223 227 228 225 233 243 243 246 246 243 260 266 267 265 261 257 259 259 260 258 261 261
184 181 180 184 184 184 188 192 192 198 199 203 206 208 216 218 222 234 228 233 230 222 215 224 224 237 237 242 244 240 253 250 252 255 257 259 267 276 270 273 274 272 257
173 171 172 176 181 180 183 187 190 193 194 200 204 208 213 219 223 226 247 236 242 238 222 219 224 235 242 246 239 244 241 241 248 254 257 258 257 263 257 264 276 273 259
164 162 161 167 174 174 178 183 181 182 187 193 199 205 209 222 234 230 236 246 238 238 221 223 229 237 241 246 245 248 250 246 247 246 237 246 250 252 253 247 250 264 275
149 148 150 156 165 169 171 175 176 177 182 188 199 196 202 211 224 238 243 251 250 250 235 228 228 236 237 236 239 242 239 240 242 252 264 262 259 252 253 245 246 253 262
145 143 144 146 149 154 160 167 172 172 175 182 188 201 202 203 209 222 235 238 242 234 232 230 231 231 232 231 232 246 240 241 244 246 242 253 273 272 267 261 252 250 244
139 136 136 138 143 148 152 157 164 167 171 175 182 194 203 204 207 213 226 227 230 230 226 226 224 227 225 223 225 236 236 242 247 254 254 258 254 256 271 269 258 249 233
135 132 131 135 138 140 143 148 154 158 162 169 176 179 188 202 213 219 219 219 222 226 223 218 219 223 228 222 218 221 226 235 250 257 261 269 269 270 283 288 281 258 220
140 136 136 133 130 131 135 140 140 143 150 159 167 167 177 194 207 209 207 206 210 214 208 207 216 221 220 212 204 192 184 163 132 4 1 337 340 332 330 311 311 312 84
140 139 138 132 130 129 131 130 129 131 140 146 153 157 163 167 174 189 186 176 185 196 184 177 185 195 207 209 193 175 158 137 121 91 77 61 55 41 24 8 359 359 353
143 138 133 130 128 126 125 125 125 130 132 136 149 153 152 146 157 168 153 140 137 138 141 155 165 163 175 62 81 155 139 130 123 105 108 99 92 80 70 54 41 26 12
145 140 134 128 126 123 123 130 132 136 138 143 147 143 146 143 143 142 132 137 147 145 145 151 145 137 82 78 98 115 137 125 118 121 116 100 86 94 97 96 93 64 44
142 134 128 122 118 117 118 118 125 132 135 136 130 129 138 135 132 131 127 135 140 143 145 142 140 129 94 94 111 132 147 125 114 108 107 107 88 64 56 87 83 68 55
128 120 117 113 104 102 105 113 118 119 123 121 120 118 126 133 135 132 132 132 135 142 144 136 136 129 109 95 119 154 134 118 105 89 72 83 99 46 52 102 99 95 93
122 119 114 107 102 97 100 106 101 106 109 114 113 108 121 127 124 123 128 132 138 137 135 122 118 114 107 84 94 179 149 129 117 104 93 73 63 50 43 109 104 100 92
124 121 115 108 102 102 105 97 91 91 97 100 95 96 102 113 114 120 127 130 129 120 121 114 103 96 92 94 78 64 132 124 117 110 99 83 73 63 49 49 73 69 79
127 124 118 111 109 111 113 107 91 85 93 95 96 95 97 102 112 121 119 123 135 135 132 126 115 104 95 79 84 77 55 39 101 99 98 96 97 83 63 65 54 16 264
125 126 123 117 110 110 114 113 101 98 100 98 95 96 98 93 89 106 122 134 145 151 142 142 133 122 116 103 93 96 85 69 91 88 88 103 125 127 104 80 40 184 92
132 133 130 124 115 109 109 110 107 106 108 104 100 103 107 104 93 81 85 92 93 120 127 132 134 129 126 123 128 130 129 133 131 123 122 125 120 118 116 130 114 70 52
138 143 142 134 127 120 115 117 115 119 118 113 111 113 111 104 92 73 44 43 54 26 11 110 126 127 119 74 49 99 119 120 121 139 136 128 126 120 106 101 90 86 85
148 156 150 141 138 132 124 126 135 142 138 130 126 124 122 118 120 115 92 57 57 53 43 36 42 74 81 98 87 80 80 88 130 155 123 117 107 106 104 101 100 90 78